"Period start","avg(HW err(1)/warn(2) (#))","avg(Visibility (m))","avg(Weather code (#))","avg(Precip intensity (mm/h))","min(HW err(1)/warn(2) (#))","max(HW err(1)/warn(2) (#))","std(HW err(1)/warn(2) (#))","med(HW err(1)/warn(2) (#))","min(Visibility (m))","max(Visibility (m))","std(Visibility (m))","med(Visibility (m))","min(Weather code (#))","max(Weather code (#))","std(Weather code (#))","med(Weather code (#))","min(Precip intensity (mm/h))","max(Precip intensity (mm/h))","std(Precip intensity (mm/h))","med(Precip intensity (mm/h))"
2016-11-25 00:00:00,1,,,,1,1,0,1,,,,,,,,,,,,
2016-11-25 00:10:00,1,,,,1,1,0,1,,,,,,,,,,,,
2016-11-25 00:20:00,2,50000,0,0.00,1,2,0,2,50000,50000,0,50000,0,0,0,0,0.00,0.00,0.00,0.00
2016-11-25 00:30:00,2,50000,0,0.00,2,2,0,2,50000,50000,0,50000,0,0,0,0,0.00,0.00,0.00,0.00
2016-11-25 00:40:00,2,50000,0,0.00,2,2,0,2,50000,50000,0,50000,0,0,0,0,0.00,0.00,0.00,0.00
2016-11-25 00:50:00,2,50000,0,0.00,2,2,0,2,50000,50000,0,50000,0,0,0,0,0.00,0.00,0.00,0.00
2016-11-25 01:00:00,2,50000,0,0.00,1,2,0,2,50000,50000,0,50000,0,0,0,0,0.00,0.00,0.00,0.00
2016-11-25 01:10:00,1,,,,1,1,0,1,,,,,,,,,,,,
2016-11-25 01:20:00,1,0,,0.00,1,2,0,1,0,0,0,0,,,,,0.00,0.00,0.00,0.00
2016-11-25 01:30:00,1,0,,0.00,1,2,0,1,0,0,0,0,,,,,0.00,0.00,0.00,0.00
2016-11-25 01:40:00,1,,,,1,1,0,1,,,,,,,,,,,,
2016-11-25 01:50:00,1,,,,1,1,0,1,,,,,,,,,,,,
2016-11-25 02:00:00,1,,,,1,1,0,1,,,,,,,,,,,,
2016-11-25 02:10:00,1,,,,1,1,0,1,,,,,,,,,,,,
2016-11-25 02:20:00,1,,,,1,1,0,1,,,,,,,,,,,,
2016-11-25 02:30:00,1,,,,1,1,0,1,,,,,,,,,,,,
2016-11-25 02:40:00,1,,,,1,1,0,1,,,,,,,,,,,,
2016-11-25 02:50:00,1,,,,1,1,0,1,,,,,,,,,,,,
2016-11-25 03:00:00,1,,,,1,1,0,1,,,,,,,,,,,,
2016-11-25 03:10:00,1,50000,,0.00,1,2,0,1,50000,50000,0,50000,,,,,0.00,0.00,0.00,0.00
2016-11-25 03:20:00,1,,,,1,1,0,1,,,,,,,,,,,,
2016-11-25 03:30:00,1,,,,1,1,0,1,,,,,,,,,,,,
2016-11-25 03:40:00,1,,,,1,1,0,1,,,,,,,,,,,,
2016-11-25 03:50:00,1,,,,1,1,0,1,,,,,,,,,,,,
2016-11-25 04:00:00,1,,,,1,1,0,1,,,,,,,,,,,,
2016-11-25 04:10:00,1,,,,1,1,0,1,,,,,,,,,,,,
2016-11-25 04:20:00,1,,,,1,1,0,1,,,,,,,,,,,,
2016-11-25 04:30:00,1,,,,1,1,0,1,,,,,,,,,,,,
2016-11-25 04:40:00,1,,,,1,1,0,1,,,,,,,,,,,,
2016-11-25 04:50:00,1,,,,1,1,0,1,,,,,,,,,,,,
2016-11-25 05:00:00,1,,,,1,1,0,1,,,,,,,,,,,,
2016-11-25 05:10:00,1,,,,1,1,0,1,,,,,,,,,,,,
2016-11-25 05:20:00,1,,,,1,1,0,1,,,,,,,,,,,,
2016-11-25 05:30:00,1,,,,1,1,0,1,,,,,,,,,,,,
2016-11-25 05:40:00,1,,,,1,1,0,1,,,,,,,,,,,,
2016-11-25 05:50:00,1,,,,1,1,0,1,,,,,,,,,,,,
2016-11-25 06:00:00,2,46652,,0.00,1,2,0,2,38210,50000,4636,50000,,,,,0.00,0.00,0.00,0.00
2016-11-25 06:10:00,2,50000,0,0.00,2,2,0,2,50000,50000,0,50000,0,0,0,0,0.00,0.00,0.00,0.00
2016-11-25 06:20:00,2,50000,0,0.00,2,2,0,2,50000,50000,0,50000,0,0,0,0,0.00,0.00,0.00,0.00
2016-11-25 06:30:00,2,50000,0,0.00,1,2,0,2,50000,50000,0,50000,0,0,0,0,0.00,0.00,0.00,0.00
2016-11-25 06:40:00,1,0,,0.00,1,2,0,1,0,0,0,0,,,,,0.00,0.00,0.00,0.00
2016-11-25 06:50:00,1,,,,1,1,0,1,,,,,,,,,,,,
2016-11-25 07:00:00,1,,,,1,1,0,1,,,,,,,,,,,,
2016-11-25 07:10:00,1,0,,0.00,1,2,0,1,0,0,0,0,,,,,0.00,0.00,0.00,0.00
2016-11-25 07:20:00,2,49955,0,0.00,2,2,0,2,49549,50000,135,50000,0,0,0,0,0.00,0.00,0.00,0.00
2016-11-25 07:30:00,2,49689,0,0.00,2,2,0,2,47529,50000,734,50000,0,0,0,0,0.00,0.00,0.00,0.00
2016-11-25 07:40:00,2,49886,0,0.00,2,2,0,2,49138,50000,263,50000,0,0,0,0,0.00,0.00,0.00,0.00
2016-11-25 07:50:00,2,50000,0,0.00,2,2,0,2,50000,50000,0,50000,0,0,0,0,0.00,0.00,0.00,0.00
2016-11-25 08:00:00,2,48313,0,0.00,2,2,0,2,44530,50000,2182,50000,0,0,0,0,0.00,0.00,0.00,0.00
2016-11-25 08:10:00,2,50000,0,0.00,2,2,0,2,50000,50000,0,50000,0,0,0,0,0.00,0.00,0.00,0.00
2016-11-25 08:20:00,2,49968,0,0.00,2,2,0,2,49680,50000,96,50000,0,0,0,0,0.00,0.00,0.00,0.00
2016-11-25 08:30:00,2,49761,0,0.00,2,2,0,2,47611,50000,717,50000,0,0,0,0,0.00,0.00,0.00,0.00
2016-11-25 08:40:00,2,49818,0,0.00,2,2,0,2,48179,50000,546,50000,0,0,0,0,0.00,0.00,0.00,0.00
2016-11-25 08:50:00,2,49974,0,0.00,2,2,0,2,49857,50000,52,50000,0,0,0,0,0.00,0.00,0.00,0.00
2016-11-25 09:00:00,2,30000,0,0.00,1,2,0,2,0,50000,24495,50000,0,0,0,0,0.00,0.00,0.00,0.00
2016-11-25 09:10:00,1,0,,0.00,1,2,0,1,0,0,0,0,,,,,0.00,0.00,0.00,0.00
2016-11-25 09:20:00,1,,,,1,1,0,1,,,,,,,,,,,,
2016-11-25 09:30:00,2,46965,0,0.00,2,2,0,2,36567,50000,4210,49168,0,0,0,0,0.00,0.00,0.00,0.00
2016-11-25 09:40:00,2,45708,0,0.00,2,2,0,2,39645,50000,3819,46040,0,0,0,0,0.00,0.00,0.00,0.00
2016-11-25 09:50:00,2,42882,0,0.00,2,2,0,2,37357,46723,2927,43778,0,0,0,0,0.00,0.00,0.00,0.00
2016-11-25 10:00:00,2,42768,0,0.00,2,2,0,2,38158,48302,2697,42642,0,0,0,0,0.00,0.00,0.00,0.00
2016-11-25 10:10:00,2,47424,0,0.00,2,2,0,2,42372,50000,2398,47808,0,0,0,0,0.00,0.00,0.00,0.00
2016-11-25 10:20:00,2,49891,0,0.00,1,2,0,2,49476,50000,194,50000,0,0,0,0,0.00,0.00,0.00,0.00
2016-11-25 10:30:00,1,,,,1,1,0,1,,,,,,,,,,,,
2016-11-25 10:40:00,1,,,,1,1,0,1,,,,,,,,,,,,
2016-11-25 10:50:00,1,,,,1,1,0,1,,,,,,,,,,,,
2016-11-25 11:00:00,2,42797,0,0.00,1,2,0,2,36098,50000,4709,43964,0,0,0,0,0.00,0.00,0.00,0.00
2016-11-25 11:10:00,2,45259,0,0.00,2,2,0,2,31705,50000,6558,49458,0,0,0,0,0.00,0.00,0.00,0.00
2016-11-25 11:20:00,2,35723,0,0.00,2,2,0,2,13388,48595,12734,39496,0,0,0,0,0.00,0.00,0.00,0.00
2016-11-25 11:30:00,2,46925,0,0.00,2,2,0,2,38769,50000,3555,48371,0,0,0,0,0.00,0.00,0.00,0.00
2016-11-25 11:40:00,2,30997,52,0.02,2,2,0,2,9140,40828,10361,36538,0,77,29,71,0.00,0.20,0.06,0.00
2016-11-25 11:50:00,2,32890,72,0.00,2,2,0,2,8377,42500,9979,36343,71,77,2,71,0.00,0.00,0.00,0.00
2016-11-25 12:00:00,2,26412,75,0.01,2,2,0,2,20529,33458,4296,25956,71,77,3,77,0.00,0.05,0.02,0.00
2016-11-25 12:10:00,2,30081,73,0.03,2,2,0,2,16858,46244,9476,29898,71,77,3,71,0.00,0.15,0.05,0.00
2016-11-25 12:20:00,2,31830,50,0.01,2,2,0,2,8452,49960,12508,30948,0,77,33,71,0.00,0.05,0.02,0.00
2016-11-25 12:30:00,2,40287,72,0.01,2,2,0,2,20332,50000,10320,43990,71,77,2,71,0.00,0.10,0.03,0.00
2016-11-25 12:40:00,2,45347,21,0.01,2,2,0,2,35450,50000,4873,47041,0,71,33,0,0.00,0.05,0.02,0.00
2016-11-25 12:50:00,2,39101,75,0.01,2,2,0,2,17353,49795,8647,40544,71,77,3,77,0.00,0.05,0.02,0.00
2016-11-25 13:00:00,2,35713,74,0.02,2,2,0,2,28278,44132,4148,35065,71,77,3,74,0.00,0.05,0.02,0.00
2016-11-25 13:10:00,2,28580,73,0.02,2,2,0,2,13017,41730,8346,29091,71,77,3,71,0.00,0.05,0.02,0.00
2016-11-25 13:20:00,2,32033,73,0.01,2,2,0,2,14961,45001,10270,33710,71,77,3,71,0.00,0.05,0.02,0.00
2016-11-25 13:30:00,2,28559,72,0.03,2,2,0,2,11925,39959,9102,29825,71,77,2,71,0.00,0.25,0.07,0.00
2016-11-25 13:40:00,2,33876,57,0.04,2,2,0,2,15996,50000,11740,36480,0,77,29,71,0.00,0.30,0.09,0.00
2016-11-25 13:50:00,2,33937,59,0.02,2,2,0,2,18155,40484,6796,36524,0,77,30,71,0.00,0.05,0.02,0.00
2016-11-25 14:00:00,2,39589,76,0.01,2,2,0,2,30242,45858,4544,40630,71,77,2,77,0.00,0.05,0.02,0.00
2016-11-25 14:10:00,2,35891,75,0.01,2,2,0,2,22618,44951,5776,36536,71,77,3,77,0.00,0.05,0.02,0.00
2016-11-25 14:20:00,2,40144,75,0.00,2,2,0,2,33521,46288,4318,38632,71,77,3,77,0.00,0.00,0.00,0.00
2016-11-25 14:30:00,2,45685,75,0.00,2,2,0,2,38013,50000,3961,47152,71,77,3,77,0.00,0.00,0.00,0.00
2016-11-25 14:40:00,2,41627,75,0.00,2,2,0,2,32438,49973,5614,42924,71,77,3,77,0.00,0.00,0.00,0.00
2016-11-25 14:50:00,2,43905,45,0.00,2,2,0,2,34181,50000,5822,44090,0,77,37,71,0.00,0.00,0.00,0.00
2016-11-25 15:00:00,2,14817,73,0.04,2,2,0,2,7482,24500,4900,14382,71,77,3,71,0.00,0.10,0.03,0.05
2016-11-25 15:10:00,2,12023,43,0.02,2,2,0,2,9473,14810,1447,12190,0,77,35,71,0.00,0.15,0.05,0.00
2016-11-25 15:20:00,2,16850,0,0.00,2,2,0,2,12711,21723,2877,16335,0,0,0,0,0.00,0.00,0.00,0.00
2016-11-25 15:30:00,2,15710,0,0.00,2,2,0,2,12742,19536,2372,15008,0,0,0,0,0.00,0.00,0.00,0.00
2016-11-25 15:40:00,2,17406,66,0.01,2,2,0,2,13755,23490,3192,16471,0,77,22,71,0.00,0.05,0.02,0.00
2016-11-25 15:50:00,2,15307,74,0.02,2,2,0,2,10144,18629,2453,15971,71,77,3,74,0.00,0.10,0.03,0.00
2016-11-25 16:00:00,2,23302,75,0.01,2,2,0,2,13318,41447,8169,21911,71,77,3,77,0.00,0.05,0.02,0.00
2016-11-25 16:10:00,2,49046,15,0.00,2,2,0,2,46672,50000,1131,49343,0,77,31,0,0.00,0.00,0.00,0.00
2016-11-25 16:20:00,2,27103,36,0.01,2,2,0,2,15707,50000,13162,20966,0,77,36,36,0.00,0.05,0.02,0.00
2016-11-25 16:30:00,2,13395,60,0.00,2,2,0,2,7908,17283,2918,14056,0,77,30,74,0.00,0.00,0.00,0.00
2016-11-25 16:40:00,2,17504,0,0.00,2,2,0,2,11663,25707,5070,15704,0,0,0,0,0.00,0.00,0.00,0.00
2016-11-25 16:50:00,2,20935,0,0.00,2,2,0,2,13024,27926,5088,21039,0,0,0,0,0.00,0.00,0.00,0.00
2016-11-25 17:00:00,2,19274,30,0.01,2,2,0,2,15160,23141,2628,18902,0,78,37,0,0.00,0.05,0.02,0.00
2016-11-25 17:10:00,2,15852,77,0.02,2,2,0,2,10857,21886,3955,15014,71,78,2,78,0.00,0.10,0.03,0.00
2016-11-25 17:20:00,2,7865,71,0.11,2,2,0,2,6449,11842,1439,7705,71,71,0,71,0.00,0.20,0.06,0.12
2016-11-25 17:30:00,2,7762,71,0.17,2,2,0,2,3966,10424,1705,8078,71,71,0,71,0.00,0.95,0.28,0.08
2016-11-25 17:40:00,2,4953,73,0.27,2,2,0,2,1758,8403,2453,4906,71,77,3,71,0.00,1.05,0.31,0.17
2016-11-25 17:50:00,2,1907,71,0.89,2,2,0,2,1707,2196,156,1904,71,71,0,71,0.65,1.25,0.18,0.90
2016-11-25 18:00:00,2,5298,71,0.35,2,2,0,2,1988,8629,2203,5508,71,71,0,71,0.00,1.30,0.43,0.15
2016-11-25 18:10:00,2,10792,75,0.04,2,2,0,2,8520,13273,1528,10707,71,77,3,77,0.00,0.10,0.04,0.05
2016-11-25 18:20:00,2,17394,78,0.00,2,2,0,2,13347,21012,1929,17590,77,78,0,78,0.00,0.00,0.00,0.00
2016-11-25 18:30:00,2,23897,78,0.00,2,2,0,2,17217,28795,3048,24318,78,78,0,78,0.00,0.00,0.00,0.00
2016-11-25 18:40:00,2,29129,23,0.00,2,2,0,2,23867,39529,4163,28858,0,78,36,0,0.00,0.00,0.00,0.00
2016-11-25 18:50:00,2,27157,77,0.00,2,2,0,2,23475,35455,3988,25235,71,78,3,78,0.00,0.00,0.00,0.00
2016-11-25 19:00:00,2,34200,38,0.00,2,2,0,2,23048,44391,6043,32819,0,78,38,36,0.00,0.00,0.00,0.00
2016-11-25 19:10:00,2,29056,78,0.00,2,2,0,2,23457,37414,4093,28811,78,78,0,78,0.00,0.00,0.00,0.00
2016-11-25 19:20:00,2,32324,78,0.00,2,2,0,2,26265,40201,3566,31894,78,78,0,78,0.00,0.00,0.00,0.00
2016-11-25 19:30:00,2,39172,78,0.00,2,2,0,2,31526,45295,4222,40002,78,78,0,78,0.00,0.00,0.00,0.00
2016-11-25 19:40:00,2,42037,78,0.00,2,2,0,2,34822,48458,3794,41586,78,78,0,78,0.00,0.00,0.00,0.00
2016-11-25 19:50:00,2,27295,78,0.00,2,2,0,2,19906,36016,4843,26468,78,78,0,78,0.00,0.00,0.00,0.00
2016-11-25 20:00:00,2,14179,78,0.01,2,2,0,2,11446,22773,3370,12766,78,78,0,78,0.00,0.05,0.02,0.00
2016-11-25 20:10:00,2,17278,78,0.00,2,2,0,2,14483,19774,1679,17136,78,78,0,78,0.00,0.00,0.00,0.00
2016-11-25 20:20:00,2,18667,78,0.00,2,2,0,2,15064,21910,2100,18715,78,78,0,78,0.00,0.00,0.00,0.00
2016-11-25 20:30:00,2,26452,78,0.00,2,2,0,2,23705,31607,2130,26454,78,78,0,78,0.00,0.00,0.00,0.00
2016-11-25 20:40:00,2,24254,78,0.00,2,2,0,2,20326,27067,2284,24622,78,78,0,78,0.00,0.00,0.00,0.00
2016-11-25 20:50:00,2,24524,78,0.00,2,2,0,2,18961,29708,3667,24970,78,78,0,78,0.00,0.00,0.00,0.00
2016-11-25 21:00:00,2,28284,78,0.00,2,2,0,2,20987,35996,5120,27537,78,78,0,78,0.00,0.00,0.00,0.00
2016-11-25 21:10:00,2,25961,78,0.00,2,2,0,2,19243,30158,3148,26944,78,78,0,78,0.00,0.00,0.00,0.00
2016-11-25 21:20:00,2,19562,77,0.02,2,2,0,2,14386,24189,3540,18360,71,78,2,78,0.00,0.10,0.03,0.00
2016-11-25 21:30:00,2,17062,75,0.01,2,2,0,2,12024,20605,2473,17360,71,78,3,77,0.00,0.05,0.02,0.00
2016-11-25 21:40:00,2,19771,78,0.01,2,2,0,2,15035,23597,3044,20680,77,78,0,78,0.00,0.05,0.02,0.00
2016-11-25 21:50:00,2,14830,76,0.05,2,2,0,2,11692,19920,2801,14226,71,78,3,77,0.00,0.15,0.06,0.03
2016-11-25 22:00:00,2,14308,71,0.07,2,2,0,2,8338,17982,2768,14158,71,71,0,71,0.00,0.40,0.12,0.03
2016-11-25 22:10:00,2,14312,71,0.06,2,2,0,2,11377,16426,1659,14872,71,71,0,71,0.00,0.25,0.07,0.05
2016-11-25 22:20:00,2,12354,73,0.07,2,2,0,2,9554,15011,1511,12066,71,77,3,71,0.05,0.20,0.05,0.05
2016-11-25 22:30:00,2,14781,75,0.03,2,2,0,2,11765,18538,1806,14714,71,77,3,77,0.00,0.15,0.05,0.00
2016-11-25 22:40:00,2,13489,72,0.14,2,2,0,2,10780,15804,1317,13830,71,77,2,71,0.00,0.35,0.12,0.12
2016-11-25 22:50:00,2,12940,71,0.11,2,2,0,2,9147,16705,2105,12687,71,71,0,71,0.00,0.50,0.14,0.05
2016-11-25 23:00:00,2,13154,71,0.07,2,2,0,2,9570,18344,2354,13275,71,71,0,71,0.00,0.15,0.04,0.05
2016-11-25 23:10:00,2,12278,71,0.09,2,2,0,2,8922,17152,2395,11892,71,71,0,71,0.00,0.20,0.06,0.08
2016-11-25 23:20:00,2,9650,71,0.21,2,2,0,2,4623,24387,5423,8160,71,71,0,71,0.00,0.85,0.25,0.10
2016-11-25 23:30:00,2,9274,71,0.18,2,2,0,2,7540,11243,1301,8850,71,71,0,71,0.05,0.60,0.20,0.08
2016-11-25 23:40:00,2,8807,71,0.12,2,2,0,2,6491,12684,1776,8683,71,71,0,71,0.05,0.25,0.08,0.08
2016-11-25 23:50:00,2,3513,71,0.77,2,2,0,2,2653,5731,953,2992,71,71,0,71,0.35,1.45,0.38,0.65
